This is the latest recevied weather packets stored in our database for station/object K9VSK-9. If no packets are shown the sender has not sent any weather packets the latest 10 day(s).
| Time | Temp. | Humidity | Pressure | Rain* | Wind** | Luminosity | Snow |
|---|---|---|---|---|---|---|---|
| 1787950279 | 27.78° C | 57% | 1020.1 hPa | 0 mm | - | - | - |
| 1787949979 | 27.78° C | 56% | 1020.1 hPa | 0 mm | - | - | - |
| 1787949679 | 27.78° C | 60% | 1020.1 hPa | 0 mm | - | - | - |
| 1787949378 | 27.78° C | 58% | 1020.3 hPa | 0 mm | - | - | - |
| 1787949078 | 27.78° C | 57% | 1020.3 hPa | 0 mm | - | - | - |
| 1787948778 | 27.78° C | 56% | 1020.3 hPa | 0 mm | - | - | - |
| 1787948477 | 27.78° C | 59% | 1020.4 hPa | 0 mm | - | - | - |
| 1787948177 | 27.22° C | 59% | 1020.5 hPa | 0 mm | - | - | - |
| 1787947877 | 27.22° C | 58% | 1020.6 hPa | 0 mm | - | - | - |
| 1787947576 | 27.78° C | 60% | 1020.6 hPa | 0 mm | - | - | - |
| 1787947276 | 27.78° C | 56% | 1020.6 hPa | 0 mm | - | - | - |
| 1787946976 | 27.78° C | 54% | 1020.6 hPa | 0 mm | - | - | - |
| 1787946676 | 28.33° C | 55% | 1020.7 hPa | 0 mm | - | - | - |
| 1787946375 | 28.33° C | 59% | 1020.7 hPa | 0 mm | - | - | - |
| 1787946075 | 27.78° C | 58% | 1020.8 hPa | 0 mm | - | - | - |
| 1787945775 | 27.78° C | 60% | 1020.8 hPa | 0 mm | - | - | - |
| 1787945475 | 28.33° C | 57% | 1020.9 hPa | 0 mm | - | - | - |
| 1787945174 | 28.33° C | 58% | 1021 hPa | 0 mm | - | - | - |
| 1787944874 | 28.33° C | 57% | 1020.9 hPa | 0 mm | - | - | - |
| 1787944574 | 28.33° C | 58% | 1021.1 hPa | 0 mm | - | - | - |
| 1787944273 | 28.33° C | 57% | 1021.1 hPa | 0 mm | - | - | - |
| 1787943673 | 28.33° C | 57% | 1021.2 hPa | 0 mm | - | - | - |
| 1787943373 | 27.78° C | 55% | 1021.1 hPa | 0 mm | - | - | - |
| 1787943072 | 27.78° C | 55% | 1021.1 hPa | 0 mm | - | - | - |
| 1787942772 | 28.33° C | 54% | 1021.2 hPa | 0 mm | - | - | - |
* Rain latest hour (hover to see other rain measurements)
** Current wind speed in m/s (hover to see current wind gust speed)